Simultaneous Nadir Overpasses (SNOs) Predictions

Prediction of SNOs between LANDSAT-8 and METOP-A Satellite Orbit:

Table of predicted SNOs for the next 14.0 days since TLE Epoch: 9/13/2016
Index Date (LANDSAT-8) Time (LANDSAT-8) Lat,Lon (LANDSAT-8) SZA (LANDSAT-8 ) Date (METOP-A) Time (METOP-A) Lat,Lon (METOP-A) SZA (METOP-A ) Distance(km) Time Diff (sec)
1 09/15/2016 06:11:18 -81.12, -52.90 99.55 09/15/2016 06:10:06 -81.11, -53.06 99.60 2.98 72
2 09/15/2016 07:00:44 81.12, 114.79 80.48 09/15/2016 07:00:45 81.13, 114.90 80.50 2.21 1
3 09/15/2016 07:49:56 -81.43, -71.94 98.69 09/15/2016 07:51:10 -81.28, -71.66 98.73 17.90 74
4 09/18/2016 01:45:34 -81.10, 13.33 98.47 09/18/2016 01:44:29 -81.11, 13.46 98.48 2.40 65
5 09/18/2016 02:34:59 81.13,-178.65 81.61 09/18/2016 02:35:08 81.13,-178.58 81.62 1.31 9
6 09/20/2016 21:19:49 -81.11, 79.87 97.34 09/20/2016 21:18:52 -81.11, 79.96 97.35 1.61 57
7 09/20/2016 22:09:14 81.13,-112.13 82.73 09/20/2016 22:09:31 81.13,-112.07 82.75 0.98 17
8 09/23/2016 16:54:03 -81.11, 146.37 96.22 09/23/2016 16:53:14 -81.12, 146.45 96.23 1.42 49
9 09/23/2016 17:43:28 81.14, -45.66 83.85 09/23/2016 17:43:53 81.14, -45.59 83.87 1.18 25
10 09/26/2016 12:28:18 -81.11,-147.19 95.10 09/26/2016 12:27:37 -81.12,-147.08 95.10 1.81 41




NCC Satellite Simultaneous Nadir Overpasses (SNOs) Prediction Service
